Location: Heisede
(52.2582°N, 9.8523°E)
Time: 00:51:34
(UTC+00:00)

COSMO-SKYMED 1 - Pass Details

Date: 13 January 2026
Orbit: 577 x 579 km, 97.9° (Epoch: 17 February)

Event Time Altitude Azimuth Distance (km) Brightness Sun altitude
Rises 03:59:42 0° 143° (SE) 2,793 6.3 -30.4°
Reaches altitude 10° 04:01:56 10° 136° (SE) 1,898 5.5 -30.1°
Enters shadow 04:05:08 37° 90° (E) 923 3.9 -29.6°
